Meteo orario Abramivka

Oggi, 14 Giugno, Lunedi

Tempo Temperatura Precipitazioni Vento Pressione Umidità
00:00 +13°C° 0 mm 2 m/s 745 mm Hg 90%
01:00 +13°C° 0 mm 2 m/s 745 mm Hg 91%
02:00 +13°C° 0 mm 2 m/s 745 mm Hg 91%
03:00 +13°C° 0 mm 2 m/s 745 mm Hg 91%
04:00 +13°C° 0 mm 2 m/s 745 mm Hg 91%
05:00 +12°C° 0 mm 3 m/s 746 mm Hg 91%
06:00 +14°C° 0 mm 3 m/s 746 mm Hg 85%
07:00 +16°C° 0 mm 3 m/s 746 mm Hg 80%
08:00 +17°C° 0 mm 4 m/s 747 mm Hg 73%
09:00 +19°C° 0 mm 4 m/s 747 mm Hg 68%
10:00 +21°C° 0 mm 4 m/s 748 mm Hg 63%
11:00 +22°C° 0 mm 4 m/s 748 mm Hg 58%
12:00 +23°C° 0 mm 4 m/s 748 mm Hg 58%
13:00 +25°C° 0 mm 3 m/s 748 mm Hg 57%
14:00 +25°C° 0 mm 3 m/s 748 mm Hg 56%
15:00 +25°C° 0.1 mm 3 m/s 748 mm Hg 59%
16:00 +25°C° 0.1 mm 3 m/s 748 mm Hg 62%
17:00 +24°C° 0.1 mm 2 m/s 748 mm Hg 65%
18:00 +23°C° 0.1 mm 2 m/s 748 mm Hg 70%
19:00 +21°C° 0.1 mm 2 m/s 748 mm Hg 75%
20:00 +19°C° 0.1 mm 2 m/s 748 mm Hg 80%
21:00 +19°C° 0.1 mm 2 m/s 748 mm Hg 82%
22:00 +18°C° 0.1 mm 2 m/s 749 mm Hg 85%
23:00 +17°C° 0.1 mm 2 m/s 749 mm Hg 88%

Domani, 15 Giugno, Martedi

Tempo Temperatura Precipitazioni Vento Pressione Umidità
00:00 +17°C° 0.2 mm 2 m/s 749 mm Hg 89%
01:00 +17°C° 0.2 mm 2 m/s 749 mm Hg 91%
02:00 +16°C° 0.2 mm 2 m/s 749 mm Hg 93%
03:00 +16°C° 0 mm 2 m/s 749 mm Hg 93%
04:00 +16°C° 0 mm 2 m/s 749 mm Hg 93%
05:00 +16°C° 0 mm 2 m/s 749 mm Hg 93%
06:00 +18°C° 0 mm 2 m/s 749 mm Hg 86%
07:00 +20°C° 0 mm 3 m/s 749 mm Hg 80%
08:00 +21°C° 0 mm 3 m/s 749 mm Hg 74%
09:00 +24°C° 0 mm 3 m/s 749 mm Hg 68%
10:00 +25°C° 0 mm 3 m/s 749 mm Hg 62%
11:00 +26°C° 0 mm 3 m/s 749 mm Hg 56%
12:00 +27°C° 0 mm 3 m/s 748 mm Hg 54%
13:00 +28°C° 0 mm 3 m/s 748 mm Hg 51%
14:00 +28°C° 0 mm 3 m/s 747 mm Hg 48%
15:00 +27°C° 0 mm 3 m/s 747 mm Hg 54%
16:00 +26°C° 0 mm 3 m/s 747 mm Hg 60%
17:00 +24°C° 0 mm 3 m/s 747 mm Hg 66%
18:00 +22°C° 0 mm 3 m/s 747 mm Hg 70%
19:00 +21°C° 0 mm 3 m/s 747 mm Hg 74%
20:00 +20°C° 0 mm 3 m/s 747 mm Hg 78%
21:00 +20°C° 0 mm 3 m/s 747 mm Hg 83%
22:00 +19°C° 0 mm 3 m/s 747 mm Hg 87%
23:00 +18°C° 0 mm 3 m/s 747 mm Hg 92%

Dopodomani, 16 Giugno, Mercoledi

Tempo Temperatura Precipitazioni Vento Pressione Umidità
00:00 +17°C° 0 mm 3 m/s 747 mm Hg 92%
01:00 +17°C° 0 mm 3 m/s 747 mm Hg 93%
02:00 +17°C° 0 mm 3 m/s 747 mm Hg 94%
03:00 +16°C° 0 mm 3 m/s 747 mm Hg 93%
04:00 +16°C° 0 mm 3 m/s 747 mm Hg 91%
05:00 +16°C° 0 mm 3 m/s 747 mm Hg 90%
06:00 +18°C° 0 mm 4 m/s 748 mm Hg 82%
07:00 +20°C° 0 mm 4 m/s 748 mm Hg 75%
08:00 +21°C° 0 mm 4 m/s 748 mm Hg 67%
09:00 +23°C° 0 mm 5 m/s 748 mm Hg 62%
10:00 +25°C° 0 mm 5 m/s 748 mm Hg 56%
11:00 +26°C° 0 mm 5 m/s 748 mm Hg 51%
12:00 +26°C° 0 mm 5 m/s 748 mm Hg 50%
13:00 +27°C° 0 mm 5 m/s 748 mm Hg 48%
14:00 +27°C° 0 mm 5 m/s 748 mm Hg 47%
15:00 +27°C° 0 mm 5 m/s 748 mm Hg 50%
16:00 +27°C° 0 mm 5 m/s 749 mm Hg 53%
17:00 +26°C° 0 mm 5 m/s 749 mm Hg 56%
18:00 +25°C° 0 mm 4 m/s 749 mm Hg 64%
19:00 +22°C° 0 mm 4 m/s 749 mm Hg 72%
20:00 +21°C° 0 mm 4 m/s 750 mm Hg 79%
21:00 +20°C° 0 mm 3 m/s 750 mm Hg 83%
22:00 +19°C° 0 mm 3 m/s 750 mm Hg 86%
23:00 +18°C° 0 mm 3 m/s 751 mm Hg 90%

17 Giugno, Giovedi

Tempo Temperatura Precipitazioni Vento Pressione Umidità
00:00 +18°C° 0 mm 3 m/s 751 mm Hg 91%
01:00 +17°C° 0 mm 3 m/s 751 mm Hg 92%
02:00 +17°C° 0 mm 3 m/s 751 mm Hg 93%
03:00 +17°C° 0 mm 3 m/s 751 mm Hg 93%
04:00 +17°C° 0 mm 4 m/s 751 mm Hg 93%
05:00 +17°C° 0 mm 4 m/s 752 mm Hg 92%
06:00 +19°C° 0 mm 4 m/s 752 mm Hg 86%
07:00 +21°C° 0 mm 4 m/s 752 mm Hg 79%
08:00 +23°C° 0 mm 5 m/s 752 mm Hg 73%
09:00 +25°C° 0 mm 5 m/s 752 mm Hg 68%
10:00 +26°C° 0 mm 5 m/s 753 mm Hg 63%
11:00 +27°C° 0 mm 5 m/s 753 mm Hg 58%
12:00 +28°C° 0 mm 5 m/s 753 mm Hg 57%
13:00 +28°C° 0 mm 5 m/s 753 mm Hg 55%
14:00 +28°C° 0 mm 6 m/s 753 mm Hg 53%
15:00 +28°C° 0 mm 5 m/s 753 mm Hg 55%
16:00 +28°C° 0 mm 5 m/s 753 mm Hg 57%
17:00 +27°C° 0 mm 5 m/s 754 mm Hg 59%
18:00 +26°C° 0 mm 5 m/s 754 mm Hg 66%
19:00 +23°C° 0 mm 4 m/s 754 mm Hg 73%
20:00 +22°C° 0 mm 4 m/s 754 mm Hg 80%
21:00 +21°C° 0 mm 4 m/s 755 mm Hg 83%
22:00 +20°C° 0 mm 3 m/s 755 mm Hg 86%
23:00 +19°C° 0 mm 3 m/s 755 mm Hg 89%

18 Giugno, Venerdi

Tempo Temperatura Precipitazioni Vento Pressione Umidità
00:00 +18°C° 0 mm 3 m/s 755 mm Hg 90%
01:00 +17°C° 0 mm 3 m/s 755 mm Hg 91%
02:00 +16°C° 0 mm 3 m/s 755 mm Hg 93%
03:00 +16°C° 0 mm 3 m/s 755 mm Hg 92%
04:00 +16°C° 0 mm 3 m/s 756 mm Hg 91%
05:00 +16°C° 0 mm 3 m/s 756 mm Hg 90%
06:00 +18°C° 0 mm 4 m/s 756 mm Hg 82%
07:00 +19°C° 0 mm 4 m/s 756 mm Hg 74%
08:00 +21°C° 0 mm 4 m/s 756 mm Hg 66%
09:00 +22°C° 0 mm 5 m/s 756 mm Hg 61%
10:00 +25°C° 0 mm 5 m/s 756 mm Hg 56%
11:00 +26°C° 0 mm 5 m/s 756 mm Hg 50%
12:00 +26°C° 0 mm 5 m/s 756 mm Hg 49%
13:00 +27°C° 0 mm 5 m/s 756 mm Hg 47%
14:00 +27°C° 0 mm 5 m/s 756 mm Hg 46%
15:00 +27°C° 0 mm 5 m/s 756 mm Hg 49%
16:00 +26°C° 0 mm 5 m/s 756 mm Hg 52%
17:00 +26°C° 0 mm 5 m/s 756 mm Hg 55%
18:00 +23°C° 0 mm 4 m/s 756 mm Hg 63%
19:00 +22°C° 0 mm 3 m/s 756 mm Hg 70%
20:00 +20°C° 0 mm 3 m/s 756 mm Hg 78%
21:00 +19°C° 0 mm 3 m/s 757 mm Hg 82%
22:00 +18°C° 0 mm 3 m/s 757 mm Hg 86%
23:00 +18°C° 0 mm 3 m/s 757 mm Hg 91%

19 Giugno, Sabato

Tempo Temperatura Precipitazioni Vento Pressione Umidità
00:00 +17°C° 0 mm 3 m/s 757 mm Hg 91%
01:00 +17°C° 0 mm 3 m/s 757 mm Hg 92%
02:00 +16°C° 0 mm 2 m/s 757 mm Hg 93%
03:00 +16°C° 0 mm 2 m/s 757 mm Hg 93%
04:00 +16°C° 0 mm 2 m/s 757 mm Hg 92%
05:00 +16°C° 0 mm 2 m/s 758 mm Hg 92%
06:00 +18°C° 0 mm 3 m/s 758 mm Hg 83%
07:00 +20°C° 0 mm 3 m/s 758 mm Hg 74%
08:00 +22°C° 0 mm 4 m/s 758 mm Hg 65%
09:00 +23°C° 0 mm 4 m/s 758 mm Hg 60%
10:00 +25°C° 0 mm 4 m/s 758 mm Hg 55%
11:00 +26°C° 0 mm 5 m/s 758 mm Hg 50%
12:00 +26°C° 0 mm 5 m/s 757 mm Hg 49%
13:00 +27°C° 0 mm 5 m/s 757 mm Hg 48%
14:00 +27°C° 0 mm 5 m/s 757 mm Hg 47%
15:00 +27°C° 0 mm 4 m/s 757 mm Hg 49%
16:00 +27°C° 0 mm 4 m/s 756 mm Hg 51%
17:00 +26°C° 0 mm 4 m/s 756 mm Hg 53%
18:00 +25°C° 0 mm 3 m/s 756 mm Hg 60%
19:00 +22°C° 0 mm 3 m/s 756 mm Hg 68%
20:00 +20°C° 0 mm 3 m/s 756 mm Hg 75%
21:00 +19°C° 0 mm 2 m/s 756 mm Hg 79%
22:00 +19°C° 0 mm 2 m/s 756 mm Hg 83%
23:00 +18°C° 0 mm 2 m/s 756 mm Hg 86%
Mostrare altro

Abbiamo bisogno del tuo consenso

Meteoprog e i nostri fornitori di servizi possono memorizzare e accedere a dati personali come cookie, identificatori di dispositivi o altre tecnologie simili sul tuo dispositivo e possono elaborare tali dati per personalizzare i contenuti e gli annunci, nonché fornire funzionalità dei social media e analizzarne il traffico.

  • Archiviare e/o accedere alle informazioni sul tuo dispositivo

    Cookie, identificatori di dispositivi o altre informazioni possono essere memorizzati o resi accessibili sul tuo dispositivo per le finalità sopra indicate.

  • Annunci e contenuti personalizzati, misurazione di annunci e contenuti, approfondimenti sul pubblico e sviluppo di prodotti

    Gli annunci e i contenuti possono essere personalizzati in base a un profilo. È possibile aggiungere più dati per personalizzare meglio annunci e contenuti. È possibile misurare il rendimento degli annunci e dei contenuti. È possibile ricavare informazioni sul pubblico che ha visto gli annunci e i contenuti. Tali dati possono essere utilizzati per sviluppare o migliorare l'esperienza, i sistemi e il software dell'utente.

Cliccando su “Accetto”, acconsenti all'uso di cookie, identificatori di dispositivo, web beacon o altre tecnologie simili. Puoi modificare le impostazioni nel browser del tuo dispositivo.

Per determinati scopi, è possibile fare affidamento su interessi legali, piuttosto che sul consenso. Puoi approfondire questo argomento consultando la nostra Informativa sulla privacy e sui cookie.